Location: Newark
(34.6283°N, 36.0776°E)
Time: 01:12:01
(UTC+00:00)

Tiros 1 despin weight - Pass Details

Date: 28 September 2019
Orbit: 593 x 643 km, 48.2° (Epoch: 19 October)

Event Time Altitude Azimuth Distance (km) Brightness Sun altitude
Rises 12:56:24 0° 308° (NW) 2,862 ? 28.7°
Reaches altitude 10° 12:58:43 10° 309° (NW) 1,949 ? 28.3°
Maximum altitude 13:03:11 81° 35° (NE) 608 ? 27.4°
Drops below altitude 10° 13:07:35 10° 125° (SE) 1,919 ? 26.6°
Sets 13:09:51 0° 126° (SE) 2,815 ? 26.2°
